[[{"header":{"parameterUnit":"m.s-1","parameterCategory":2,"la1":30.2991,"la2":30.254,"lo1":-89.0895,"lo2":-89.0444,"dy":0.0017,"dx":0.0017,"nx":28,"ny":28,"refTime":"2025-09-05T21:00:00:Z","depth":"0","parameterNumber":2,"parameterNumberName":"U-component_of_CURRENTS"},"data":[0,0,0,0,0,0,0,0,0,0,0,0,0,0,0,0,0,0,0,0,0,0,0,0,0,0,0,0,0,0,0,0,0,0,0,0,0,0,0,0,0,0,0,0,0,0,0,0,0,0,0,0,0,0,0,0,0,0,0.2487,0.2487,0,0.2535,0.2535,0.2536,0.2523,0.2522,0.2522,0.2521,0.2527,0.2527,0.2528,0,0,0,0,0,0,0,0,0,0,0,0,0,0.2361,0.2363,0.2486,0.2487,0.2488,0.2535,0.2535,0.2536,0.2523,0.2522,0.2521,0.2521,0.2527,0.2527,0.2528,0,0,0,0,0,0,0,0,0,0,0,0,0,0.241,0.2364,0.2486,0.249,0.2492,0.2535,0.2535,0.2536,0.2523,0.2522,0.2521,0.252,0.2526,0.2527,0.2528,0.2553,0,0,0.2532,0.2532,0,0,0,0,0,0,0,0,0.2407,0.2414,0.2489,0.249,0.2492,0.2525,0.2494,0.2541,0.2523,0.2507,0.2521,0.252,0.2526,0.2527,0.2533,0.2554,0.2554,0.2532,0.2532,0.2533,0.2533,0,0,0,0,0,0,0,0.2404,0.2412,0.2502,0.249,0.2492,0.2483,0.2489,0.2502,0.2517,0.2508,0.2509,0.252,0.2525,0.2532,0.2533,0.2554,0.2532,0.2533,0.2533,0.2534,0.258,0.258,0,0,0,0,0,0,0.2408,0.2409,0.25,0.2504,0.2451,0.2486,0.2492,0.2512,0.2518,0.2519,0.2521,0.252,0.253,0.2532,0.2533,0.2558,0.2533,0.2534,0.2535,0.2579,0.258,0.258,0,0,0,0,0,0,0.2405,0.2416,0.2498,0.2459,0.247,0.249,0.2512,0.2514,0.2522,0.2529,0.2528,0.2528,0.253,0.2531,0.2546,0.2558,0.2534,0.2535,0.2578,0.2579,0.258,0.2611,0,0,0,0,0,0,0.2402,0.2415,0.2428,0.246,0.2472,0.2526,0.2513,0.2516,0.2533,0.2531,0.2535,0.2534,0.2529,0.2544,0.2547,0.2559,0.2536,0.2578,0.2579,0.258,0.261,0.2613,0.2616,0,0,0,0,0,0.2397,0.2421,0.2429,0.244,0.2491,0.2527,0.2532,0.254,0.2534,0.2542,0.2543,0.2534,0.2553,0.2546,0.2549,0.2562,0.2577,0.2579,0.258,0.2608,0.2612,0.2616,0,0,0,0,0,0,0.2376,0.2423,0.2432,0.247,0.2497,0.2526,0.2538,0.2545,0.2554,0.2549,0.2547,0.2547,0.2561,0.256,0.2553,0.2577,0.2562,0.2564,0.2582,0.2586,0.259,0.2601,0.2537,0,0,0,0,0,0.238,0.2407,0.2448,0.2478,0.2492,0.2516,0.2531,0.2539,0.2554,0.2557,0.2559,0.2562,0.257,0.2577,0.258,0.2602,0.2701,0.261,0.2613,0.2616,0.2627,0.2833,0.2858,0.2585,0.2585,0.2585,0,0,0.2382,0.2411,0.2427,0.2475,0.2495,0.2521,0.2521,0.2548,0.2564,0.2557,0.2571,0.2573,0.2578,0.2594,0.2601,0.2596,0.2743,0.2618,0.262,0.263,0.2837,0.2865,0.2889,0.2586,0.2585,0.2585,0,0,0.2401,0.2424,0.2454,0.2475,0.2512,0.2526,0.2536,0.2566,0.257,0.2596,0.2587,0.2601,0.2617,0.2621,0.2627,0.2655,0.2752,0.2651,0.2684,0.2883,0.2909,0.2933,0.3095,0.3133,0.2657,0.2657,0.2657,0,0.2407,0.2447,0.2466,0.2496,0.252,0.253,0.2563,0.257,0.2597,0.2628,0.2603,0.2662,0.2633,0.2689,0.2667,0.2663,0.2798,0.2668,0.2894,0.292,0.2944,0.3105,0.3146,0.2659,0.2658,0.2658,0.2658,0,0.2446,0.2474,0.2492,0.2533,0.2557,0.2585,0.2605,0.2625,0.2634,0.2663,0.2721,0.2707,0.2765,0.2731,0.2693,0.2826,0.2874,0.2879,0.2895,0.2975,0.3137,0.318,0.2661,0.266,0.266,0.2659,0,0,0.2492,0.2515,0.2525,0.2558,0.2579,0.2621,0.2637,0.2694,0.2767,0.2763,0.2881,0.2822,0.2857,0.2863,0.2842,0.2946,0.3179,0.2974,0.2984,0.3153,0.3644,0.3544,0.3582,0.3265,0.3273,0.3278,0.3691,0,0.2527,0.2582,0.2579,0.2643,0.2685,0.2692,0.2732,0.278,0.2828,0.294,0.2941,0.3034,0.2902,0.2962,0.3043,0.3165,0.3296,0.3067,0.3525,0.3537,0.3456,0.3628,0.3484,0.3829,0.3734,0.3741,0.3746,0,0.2588,0.2619,0.2677,0.2742,0.2764,0.2803,0.2917,0.2952,0.307,0.3121,0.3206,0.3249,0.3355,0.3262,0.3536,0.3421,0.353,0.3602,0.3623,0.3549,0.3518,0.3732,0.3912,0.3773,0.3813,0.3808,0.3803,0,0.2658,0.2703,0.2755,0.2772,0.2836,0.2886,0.2929,0.3031,0.3107,0.3279,0.3396,0.3528,0.365,0.3807,0.3863,0.3787,0.4197,0.4139,0.4151,0.4146,0.4115,0.4092,0.4226,0.4384,0.4383,0.4382,0.4381,0,0.2728,0.2779,0.2804,0.2845,0.2958,0.2975,0.312,0.3181,0.3321,0.3431,0.3518,0.3643,0.3805,0.4,0.4045,0.4231,0.4377,0.4209,0.4271,0.4113,0.4087,0.4032,0.3938,0.4397,0.4394,0.4391,0.4388,0,0.2829,0.2819,0.2907,0.2972,0.3,0.3102,0.3216,0.3294,0.3439,0.3603,0.3675,0.3859,0.4081,0.4212,0.4495,0.4482,0.4535,0.4671,0.4433,0.4455,0.4273,0.4185,0.4274,0.4154,0.4817,0.4817,0.4817,0,0.2882,0.293,0.3014,0.3032,0.3066,0.3185,0.3225,0.3353,0.342,0.3678,0.3744,0.403,0.413,0.4514,0.4592,0.4778,0.4571,0.4738,0.4512,0.4287,0.4241,0.4033,0.3909,0.4514,0.4512,0.451,0.4508,0,0.2968,0.2995,0.3027,0.3094,0.3138,0.321,0.3282,0.3363,0.3482,0.3625,0.3771,0.3902,0.4233,0.4347,0.4595,0.4653,0.4489,0.4701,0.4591,0.4113,0.3789,0.3693,0.4186,0.4492,0.4494,0.4495,0.4496,0.4496,0.2984,0.3028,0.3029,0.3097,0.313,0.3148,0.3171,0.3229,0.3335,0.346,0.3664,0.3807,0.4096,0.4396,0.4439,0.4427,0.4367,0.4322,0.428,0.4123,0.3843,0.4248,0.4513,0.4515,0.4516,0.4518,0.4519,0,0.2937,0.2946,0.2997,0.3016,0.3005,0.3071,0.3103,0.3077,0.3101,0.3297,0.3415,0.3675,0.3855,0.4045,0.4161,0.4042,0.387,0.3941,0.3642,0.3574,0.4096,0.3907,0.3903,0.3903,0.3903,0.3903,0.3903,0.3903,0.2874,0.2861,0.2892,0.2845,0.2857,0.2791,0.2776,0.2771,0.2865,0.2956,0.3086,0.3295,0.3593,0.3849,0.3798,0.3715,0.3404,0.329,0.3255,0.3622,0.3652,0.3681,0.3483,0.3389,0.3389,0.2601,0.2594,0.259]},{"header":{"parameterUnit":"m.s-1","parameterCategory":2,"la1":30.2991,"la2":30.254,"lo1":-89.0895,"lo2":-89.0444,"dy":0.0017,"dx":0.0017,"nx":28,"ny":28,"refTime":"2025-09-05T21:00:00:Z","depth":"0","parameterNumber":3,"parameterNumberName":"V-component_of_CURRENTS"},"data":[0,0,0,0,0,0,0,0,0,0,0,0,0,0,0,0,0,0,0,0,0,0,0,0,0,0,0,0,0,0,0,0,0,0,0,0,0,0,0,0,0,0,0,0,0,0,0,0,0,0,0,0,0,0,0,0,0,0,-0.009,-0.0091,0,-0.0158,-0.0159,-0.016,-0.0207,-0.0207,-0.0208,-0.0208,-0.0313,-0.0315,-0.0318,0,0,0,0,0,0,0,0,0,0,0,0,0,-0.0035,-0.0036,-0.009,-0.0091,-0.0091,-0.0158,-0.0159,-0.016,-0.0207,-0.0207,-0.0208,-0.0208,-0.0312,-0.0315,-0.0318,0,0,0,0,0,0,0,0,0,0,0,0,0,-0.0077,-0.0036,-0.009,-0.0123,-0.0126,-0.0158,-0.0159,-0.016,-0.0207,-0.0207,-0.0208,-0.0208,-0.0311,-0.0315,-0.0319,-0.0332,0,0,-0.033,-0.0332,0,0,0,0,0,0,0,0,-0.0074,-0.0079,-0.0117,-0.012,-0.0125,-0.0174,-0.0178,-0.0219,-0.0207,-0.0176,-0.0208,-0.0208,-0.027,-0.0277,-0.0288,-0.0337,-0.0341,-0.033,-0.0333,-0.0334,-0.0335,0,0,0,0,0,0,0,-0.0071,-0.0076,-0.0117,-0.0118,-0.0122,-0.0146,-0.0152,-0.0186,-0.022,-0.0179,-0.0183,-0.019,-0.0272,-0.0285,-0.0291,-0.0343,-0.033,-0.0334,-0.0336,-0.0337,-0.0449,-0.0449,0,0,0,0,0,0,-0.006,-0.0073,-0.0115,-0.0119,-0.01,-0.0147,-0.0154,-0.0158,-0.0219,-0.0229,-0.0189,-0.0192,-0.0278,-0.0287,-0.0295,-0.0334,-0.0334,-0.0338,-0.034,-0.0448,-0.0449,-0.045,0,0,0,0,0,0,-0.0059,-0.0063,-0.0112,-0.0098,-0.0106,-0.0147,-0.0152,-0.0159,-0.0171,-0.0226,-0.0237,-0.0193,-0.0279,-0.029,-0.0332,-0.0338,-0.0339,-0.0343,-0.0447,-0.0448,-0.0449,-0.04,0,0,0,0,0,0,-0.0057,-0.0062,-0.0058,-0.0097,-0.0106,-0.0125,-0.0151,-0.016,-0.0175,-0.0178,-0.0233,-0.0244,-0.028,-0.0326,-0.0336,-0.0343,-0.0346,-0.0446,-0.0448,-0.0449,-0.0401,-0.0399,-0.0398,0,0,0,0,0,-0.0054,-0.0046,-0.0057,-0.0062,-0.01,-0.0124,-0.0131,-0.0163,-0.0174,-0.0176,-0.0221,-0.0242,-0.0342,-0.033,-0.0341,-0.0349,-0.0446,-0.0447,-0.0449,-0.0401,-0.04,-0.0398,0,0,0,0,0,0,-0.0013,-0.0051,-0.0064,-0.0065,-0.009,-0.0132,-0.0137,-0.0156,-0.0191,-0.0197,-0.0248,-0.0262,-0.0302,-0.0334,-0.0319,-0.0388,-0.0398,-0.0402,-0.0359,-0.0358,-0.0356,-0.0286,-0.0349,0,0,0,0,0,-0.0002,-0.0009,-0.0046,-0.0045,-0.0058,-0.0095,-0.0107,-0.0128,-0.0166,-0.0181,-0.0221,-0.0271,-0.0317,-0.0342,-0.0383,-0.0417,-0.0364,-0.0433,-0.0431,-0.043,-0.0382,-0.0319,-0.0305,-0.0455,-0.0455,-0.0455,0,0,0.0015,-0.0007,-0.001,-0.0038,-0.0061,-0.0074,-0.0104,-0.0119,-0.0129,-0.0187,-0.0215,-0.0263,-0.0324,-0.0366,-0.0387,-0.0393,-0.036,-0.0432,-0.043,-0.0382,-0.0319,-0.0303,-0.029,-0.0456,-0.0456,-0.0456,0,0,0.0043,0.0026,0.0026,0.0004,-0.0027,-0.0052,-0.0053,-0.0094,-0.0111,-0.0146,-0.0193,-0.0233,-0.0309,-0.0344,-0.0376,-0.0389,-0.0352,-0.0421,-0.0358,-0.0299,-0.0284,-0.0271,-0.0167,-0.0145,-0.0423,-0.0423,-0.0423,0,0.0067,0.0065,0.0025,0.0016,0.0013,-0.0039,-0.003,-0.0064,-0.0113,-0.01,-0.0149,-0.0211,-0.0291,-0.0303,-0.0334,-0.0381,-0.0318,-0.0359,-0.029,-0.0276,-0.0263,-0.016,-0.0136,-0.0421,-0.0421,-0.0421,-0.0422,0,0.0089,0.0089,0.0088,0.0061,0.0049,0.005,0.0002,-0.0007,-0.0037,-0.0053,-0.0062,-0.0152,-0.0163,-0.0234,-0.0303,-0.0261,-0.0235,-0.0289,-0.0279,-0.0243,-0.014,-0.0115,-0.0418,-0.0419,-0.0419,-0.042,0,0,0.0164,0.0115,0.012,0.0147,0.0083,0.0103,0.0069,0.0073,0.0139,0.0043,0.0136,-0.0026,-0.0025,-0.0059,-0.0136,-0.0134,-0.0035,-0.0175,-0.0173,-0.0042,0.0155,0.0075,0.0095,-0.0067,-0.0063,-0.006,0.0199,0,0.0208,0.0231,0.0176,0.0224,0.0252,0.0196,0.0209,0.0202,0.0197,0.027,0.0178,0.0225,0.0028,0.0065,0.0022,0.0014,0.003,-0.0096,0.0077,0.0084,0.0032,0.0119,0.0027,0.0241,0.0223,0.0227,0.023,0,0.0271,0.0285,0.0335,0.0381,0.0392,0.0413,0.05,0.0501,0.0536,0.0547,0.0547,0.0516,0.0509,0.0349,0.0351,0.0292,0.0232,0.019,0.0198,0.0134,0.0049,0.0195,0.0287,0.0048,0.0268,0.0265,0.0262,0,0.0421,0.0421,0.0489,0.0491,0.0507,0.0558,0.058,0.0614,0.0692,0.0778,0.0886,0.084,0.0912,0.0804,0.0635,0.0548,0.0667,0.0548,0.0425,0.0421,0.0385,0.0369,0.0293,0.0568,0.0567,0.0567,0.0566,0,0.0535,0.0601,0.0587,0.0639,0.0783,0.0737,0.0913,0.0926,0.1026,0.1174,0.1081,0.1214,0.1031,0.1029,0.0822,0.0723,0.0823,0.0497,0.049,0.0394,0.0377,0.0196,0.0068,0.0576,0.0574,0.0572,0.0571,0,0.073,0.0688,0.0796,0.0836,0.0866,0.0995,0.1115,0.1238,0.1312,0.1521,0.1576,0.1595,0.159,0.1375,0.1273,0.1024,0.0764,0.0814,0.0726,0.0699,0.0316,0.0194,0.0206,0.0108,0.0787,0.0786,0.0786,0,0.0844,0.0907,0.0979,0.104,0.1073,0.1224,0.132,0.1392,0.152,0.1737,0.1862,0.194,0.1959,0.1789,0.1379,0.1096,0.0823,0.0826,0.0585,0.0332,0.0194,0.0105,0.0014,0.0588,0.0586,0.0584,0.0583,0,0.1061,0.1071,0.1135,0.1254,0.1364,0.1509,0.165,0.1798,0.1902,0.2076,0.2279,0.2333,0.2142,0.1816,0.1399,0.1135,0.0633,0.0784,0.0555,0.0074,-0.005,-0.0162,0.0409,0.0569,0.0571,0.0572,0.0572,0.0573,0.1213,0.1296,0.1331,0.1461,0.1576,0.1739,0.1878,0.2024,0.2245,0.2466,0.2534,0.2619,0.215,0.1556,0.1204,0.0487,0.0532,0.0234,0.0138,0.0097,-0.0116,0.0431,0.0525,0.0526,0.0527,0.0528,0.0528,0,0.1354,0.1391,0.1511,0.1632,0.1769,0.181,0.2038,0.2165,0.2396,0.2591,0.2738,0.252,0.1919,0.1305,0.0358,-0.0098,-0.0275,-0.0326,-0.0492,-0.0533,-0.0006,-0.0147,-0.0237,-0.0237,-0.0237,-0.0237,-0.0236,-0.0236,0.1408,0.1502,0.1542,0.1748,0.1845,0.2031,0.2158,0.2351,0.2509,0.268,0.2695,0.2702,0.216,0.0599,-0.0466,-0.0681,-0.0984,-0.1042,-0.1126,-0.0842,-0.0799,-0.0758,-0.0924,-0.1175,-0.1177,-0.1656,-0.1661,-0.1665]}],[{"header":{"parameterUnit":"m.s-1","parameterCategory":2,"la1":30.2991,"la2":30.254,"lo1":-89.0895,"lo2":-89.0444,"dy":0.0017,"dx":0.0017,"nx":28,"ny":28,"refTime":"2025-09-05T21:00:00:Z","depth":"2","parameterNumber":2,"parameterNumberName":"U-component_of_CURRENTS"},"data":[0,0,0,0,0,0,0,0,0,0,0,0,0,0,0,0,0,0,0,0,0,0,0,0,0,0,0,0,0,0,0,0,0,0,0,0,0,0,0,0,0,0,0,0,0,0,0,0,0,0,0,0,0,0,0,0,0,0,0.2231,0.2232,0,0.2292,0.2292,0.2292,0.2317,0.2317,0.2318,0.2319,0.2327,0.2326,0.2326,0,0,0,0,0,0,0,0,0,0,0,0,0,0.2168,0.2168,0.2231,0.2232,0.2234,0.2292,0.2292,0.2292,0.2316,0.2317,0.2318,0.2319,0.2327,0.2326,0.2326,0,0,0,0,0,0,0,0,0,0,0,0,0,0.2199,0.2168,0.223,0.2261,0.2265,0.2292,0.2292,0.2292,0.2316,0.2317,0.2319,0.232,0.2327,0.2327,0.2326,0.2298,0,0,0.2323,0.2323,0,0,0,0,0,0,0,0,0.2198,0.22,0.2254,0.2259,0.2263,0.2307,0.2274,0.2295,0.2316,0.2286,0.2319,0.232,0.2321,0.2321,0.2316,0.2298,0.2299,0.2323,0.2323,0.2323,0.2322,0,0,0,0,0,0,0,0.2195,0.2198,0.2245,0.2256,0.2262,0.2284,0.2288,0.2277,0.2287,0.2289,0.2293,0.2316,0.2322,0.2317,0.2317,0.2299,0.2323,0.2323,0.2322,0.2322,0.2428,0.2431,0,0,0,0,0,0,0.2205,0.2196,0.2243,0.2248,0.2244,0.2284,0.2289,0.2283,0.2289,0.2294,0.2315,0.2317,0.2317,0.2317,0.2317,0.2403,0.2323,0.2322,0.2321,0.2424,0.2428,0.2432,0,0,0,0,0,0,0.2203,0.2207,0.2241,0.2233,0.224,0.2285,0.2278,0.2284,0.2307,0.2311,0.2313,0.2337,0.2318,0.2318,0.2338,0.2399,0.2322,0.2321,0.2421,0.2426,0.243,0.2499,0,0,0,0,0,0,0.22,0.2205,0.2211,0.2232,0.2241,0.2269,0.2279,0.2285,0.2323,0.2326,0.233,0.2331,0.2319,0.2339,0.2337,0.2397,0.232,0.2416,0.2423,0.2429,0.2492,0.2505,0.2516,0,0,0,0,0,0.2197,0.2212,0.221,0.2218,0.2245,0.2271,0.2275,0.2306,0.2323,0.233,0.2345,0.2332,0.2379,0.2339,0.2337,0.2398,0.2413,0.2421,0.2428,0.2487,0.2503,0.2516,0,0,0,0,0,0,0.2185,0.2217,0.2216,0.2237,0.2256,0.2279,0.2304,0.2319,0.2334,0.235,0.2342,0.2343,0.2389,0.2386,0.2343,0.2454,0.2407,0.2414,0.2453,0.2467,0.2479,0.245,0.232,0,0,0,0,0,0.2184,0.2201,0.2226,0.224,0.2256,0.2278,0.2299,0.2319,0.2339,0.2349,0.2352,0.2379,0.2413,0.2432,0.2442,0.2481,0.2502,0.2533,0.2545,0.2555,0.2535,0.2634,0.2653,0.2456,0.2456,0.2456,0,0,0.2186,0.2205,0.2215,0.2239,0.2257,0.2296,0.2291,0.2333,0.2377,0.2345,0.2396,0.2403,0.243,0.2483,0.2508,0.2491,0.2631,0.2565,0.2572,0.2546,0.2644,0.2663,0.2679,0.2461,0.246,0.2459,0,0,0.2215,0.2209,0.2247,0.2259,0.2303,0.2322,0.2341,0.2372,0.2399,0.2435,0.2451,0.2484,0.2518,0.2554,0.258,0.2664,0.2682,0.2698,0.274,0.2839,0.2855,0.2869,0.2945,0.2966,0.2716,0.2716,0.2716,0,0.2225,0.2259,0.226,0.2296,0.2326,0.2341,0.2391,0.2418,0.2453,0.2483,0.2465,0.2547,0.2553,0.265,0.2679,0.2688,0.2742,0.2677,0.2852,0.2866,0.2879,0.2954,0.2976,0.272,0.272,0.2719,0.2719,0,0.2261,0.2309,0.2331,0.2381,0.2405,0.2446,0.2486,0.2518,0.2548,0.2574,0.2648,0.265,0.2705,0.2732,0.2719,0.284,0.2849,0.2845,0.2805,0.2903,0.2976,0.2998,0.2726,0.2725,0.2724,0.2723,0,0,0.2251,0.2348,0.2358,0.2398,0.2455,0.2474,0.2555,0.2625,0.2682,0.2707,0.2787,0.2826,0.2822,0.285,0.2865,0.2926,0.3062,0.2925,0.2928,0.2982,0.3285,0.3124,0.3131,0.3104,0.3107,0.311,0.3307,0,0.2293,0.2388,0.2423,0.251,0.2563,0.2592,0.2656,0.2713,0.276,0.2829,0.2866,0.2931,0.2882,0.2916,0.2976,0.3045,0.3118,0.3008,0.3196,0.32,0.303,0.3149,0.2915,0.3055,0.3327,0.333,0.3333,0,0.2331,0.2385,0.2488,0.2585,0.2607,0.265,0.2736,0.2796,0.2897,0.2938,0.3007,0.3035,0.3136,0.3071,0.3239,0.3183,0.323,0.3263,0.3273,0.3099,0.3076,0.2999,0.3083,0.3368,0.3365,0.3362,0.336,0,0.2326,0.2441,0.2525,0.2546,0.2644,0.2687,0.2737,0.2826,0.2897,0.3013,0.3084,0.3186,0.3265,0.3343,0.3373,0.3352,0.3532,0.3531,0.3429,0.342,0.3236,0.3201,0.3641,0.3641,0.3641,0.364,0.3639,0,0.2367,0.2431,0.2522,0.255,0.262,0.2682,0.2772,0.2833,0.2958,0.3041,0.3137,0.3215,0.3338,0.3433,0.3451,0.349,0.3616,0.3442,0.3463,0.3254,0.3221,0.3488,0.3467,0.3647,0.3646,0.3644,0.3643,0,0.2368,0.2445,0.2516,0.26,0.2629,0.2661,0.2785,0.284,0.2976,0.3098,0.3149,0.3312,0.3428,0.3505,0.3638,0.3592,0.3635,0.3605,0.3325,0.3305,0.3452,0.3434,0.3578,0.3574,0.3571,0.3568,0.3566,0,0.2392,0.2429,0.2508,0.2526,0.2565,0.2636,0.2683,0.2824,0.2892,0.3117,0.3165,0.3342,0.3387,0.3523,0.3498,0.3534,0.3586,0.3302,0.3186,0.3441,0.3449,0.3435,0.3422,0.3011,0.3004,0.2999,0.2995,0,0.2368,0.2388,0.2415,0.2461,0.2503,0.2572,0.2655,0.2726,0.2886,0.299,0.3113,0.3179,0.3314,0.3225,0.3246,0.3218,0.3275,0.3187,0.3592,0.3017,0.2909,0.2915,0.2921,0.2946,0.295,0.2954,0.2957,0.2959,0.2302,0.2298,0.2317,0.2361,0.2417,0.2474,0.2501,0.2597,0.2685,0.2775,0.291,0.2914,0.2985,0.2888,0.2822,0.2798,0.3012,0.2893,0.291,0.2934,0.2786,0.2673,0.264,0.2643,0.2645,0.2648,0.265,0,0.2173,0.2186,0.2214,0.2248,0.2272,0.236,0.2447,0.2427,0.2464,0.2536,0.2577,0.2374,0.2343,0.243,0.2334,0.2334,0.2324,0.2237,0.2223,0.2274,0.2319,0.2139,0.1822,0.1819,0.1817,0.1814,0,0,0.2087,0.2051,0.2082,0.2083,0.2137,0.2138,0.2174,0.216,0.2186,0.207,0.2044,0.2172,0.2334,0.2023,0.2014,0.1908,0.2064,0.1832,0.2504,0.2538,0.2579,0.2715,0.2496,0,0,0,0,0]},{"header":{"parameterUnit":"m.s-1","parameterCategory":2,"la1":30.2991,"la2":30.254,"lo1":-89.0895,"lo2":-89.0444,"dy":0.0017,"dx":0.0017,"nx":28,"ny":28,"refTime":"2025-09-05T21:00:00:Z","depth":"2","parameterNumber":3,"parameterNumberName":"V-component_of_CURRENTS"},"data":[0,0,0,0,0,0,0,0,0,0,0,0,0,0,0,0,0,0,0,0,0,0,0,0,0,0,0,0,0,0,0,0,0,0,0,0,0,0,0,0,0,0,0,0,0,0,0,0,0,0,0,0,0,0,0,0,0,0,-0.024,-0.0241,0,-0.0283,-0.0283,-0.0283,-0.0334,-0.0336,-0.0337,-0.0339,-0.042,-0.0421,-0.0422,0,0,0,0,0,0,0,0,0,0,0,0,0,-0.0254,-0.0253,-0.024,-0.0242,-0.0243,-0.0283,-0.0283,-0.0283,-0.0334,-0.0336,-0.0338,-0.0339,-0.042,-0.0421,-0.0422,0,0,0,0,0,0,0,0,0,0,0,0,0,-0.0261,-0.0252,-0.024,-0.0278,-0.0283,-0.0283,-0.0283,-0.0283,-0.0334,-0.0336,-0.0338,-0.034,-0.0419,-0.0421,-0.0422,-0.0387,0,0,-0.0426,-0.0426,0,0,0,0,0,0,0,0,-0.026,-0.0259,-0.0271,-0.0276,-0.0281,-0.0312,-0.0319,-0.0322,-0.0333,-0.0307,-0.0339,-0.0341,-0.039,-0.0394,-0.0387,-0.039,-0.0394,-0.0426,-0.0426,-0.0427,-0.0427,0,0,0,0,0,0,0,-0.026,-0.0258,-0.025,-0.0273,-0.0278,-0.0312,-0.0314,-0.0319,-0.0331,-0.0309,-0.0315,-0.033,-0.0392,-0.0385,-0.0389,-0.0395,-0.0426,-0.0427,-0.0428,-0.0428,-0.0517,-0.0519,0,0,0,0,0,0,-0.0263,-0.0257,-0.0249,-0.0252,-0.0284,-0.031,-0.0312,-0.0294,-0.0331,-0.034,-0.0328,-0.0333,-0.0382,-0.0388,-0.0393,-0.0448,-0.0427,-0.0428,-0.0429,-0.0515,-0.0517,-0.0519,0,0,0,0,0,0,-0.0262,-0.026,-0.0247,-0.0264,-0.0266,-0.0308,-0.0287,-0.0294,-0.0308,-0.0346,-0.0355,-0.034,-0.0384,-0.0391,-0.0405,-0.0448,-0.0429,-0.043,-0.0514,-0.0516,-0.0518,-0.0498,0,0,0,0,0,0,-0.0262,-0.0259,-0.025,-0.0263,-0.0265,-0.0242,-0.0286,-0.0293,-0.0317,-0.0323,-0.0358,-0.0367,-0.0386,-0.0403,-0.0407,-0.0449,-0.0431,-0.0511,-0.0515,-0.0517,-0.0496,-0.0499,-0.0501,0,0,0,0,0,-0.0262,-0.024,-0.0248,-0.0249,-0.0249,-0.0242,-0.0244,-0.0279,-0.0315,-0.0303,-0.0338,-0.0367,-0.0428,-0.0403,-0.0407,-0.0452,-0.051,-0.0514,-0.0517,-0.0495,-0.0499,-0.0501,0,0,0,0,0,0,-0.0234,-0.0244,-0.0254,-0.0234,-0.0237,-0.0253,-0.0255,-0.0281,-0.0296,-0.0314,-0.0352,-0.0361,-0.0398,-0.0422,-0.0395,-0.0493,-0.0488,-0.0492,-0.047,-0.0473,-0.0476,-0.041,-0.0432,0,0,0,0,0,-0.0224,-0.0216,-0.0223,-0.0208,-0.0208,-0.0232,-0.024,-0.0261,-0.028,-0.029,-0.0315,-0.0364,-0.0411,-0.0437,-0.0461,-0.049,-0.0482,-0.0536,-0.0539,-0.054,-0.0493,-0.0507,-0.0505,-0.0531,-0.0531,-0.0531,0,0,-0.0213,-0.0218,-0.0215,-0.0205,-0.0211,-0.0206,-0.0239,-0.0246,-0.0261,-0.0295,-0.0315,-0.0355,-0.0417,-0.0457,-0.0481,-0.0486,-0.0539,-0.0545,-0.0546,-0.0497,-0.051,-0.0507,-0.0504,-0.0534,-0.0533,-0.0533,0,0,-0.0188,-0.0182,-0.017,-0.0165,-0.0179,-0.0195,-0.0199,-0.0212,-0.0235,-0.0249,-0.0304,-0.035,-0.0403,-0.0455,-0.0496,-0.0524,-0.0541,-0.057,-0.0536,-0.0552,-0.0548,-0.0545,-0.056,-0.0557,-0.0584,-0.0584,-0.0584,0,-0.0181,-0.0154,-0.0165,-0.0147,-0.0149,-0.019,-0.0175,-0.0198,-0.0221,-0.0229,-0.0256,-0.0339,-0.0401,-0.0465,-0.0491,-0.0528,-0.0528,-0.0518,-0.055,-0.0546,-0.0543,-0.0558,-0.0556,-0.0584,-0.0584,-0.0584,-0.0584,0,-0.0133,-0.0124,-0.0112,-0.011,-0.0109,-0.0099,-0.0132,-0.0141,-0.0184,-0.0208,-0.0251,-0.0314,-0.0358,-0.0428,-0.0468,-0.0505,-0.0511,-0.0538,-0.0528,-0.0538,-0.0556,-0.0554,-0.0583,-0.0583,-0.0583,-0.0583,0,0,-0.0099,-0.0084,-0.0083,-0.0079,-0.0086,-0.0083,-0.01,-0.0115,-0.0128,-0.0168,-0.0173,-0.0282,-0.0298,-0.0342,-0.0418,-0.0451,-0.0467,-0.048,-0.0481,-0.0468,-0.0488,-0.0514,-0.0515,-0.0492,-0.0491,-0.049,-0.0519,0,-0.0065,-0.0036,-0.0032,-0.0018,-0.0012,-0.003,-0.0039,-0.0064,-0.0096,-0.0106,-0.0183,-0.0216,-0.028,-0.0309,-0.0346,-0.0421,-0.0454,-0.0455,-0.0501,-0.0501,-0.0502,-0.0511,-0.0481,-0.0504,-0.0517,-0.0517,-0.0516,0,-0.0034,-0.0017,0.001,0.0015,0.0023,0.0032,0.0023,0.0013,-0.0016,-0.0034,-0.0057,-0.0103,-0.0156,-0.0214,-0.0298,-0.0288,-0.0369,-0.0435,-0.0438,-0.045,-0.0522,-0.0495,-0.05,-0.0513,-0.0513,-0.0513,-0.0513,0,-0.0043,-0.0004,0.0014,0.0024,0.0037,0.0054,0.0059,0.0041,0.0046,0.0026,0.0037,-0.0018,-0.0045,-0.012,-0.0264,-0.0265,-0.0358,-0.0386,-0.0484,-0.0488,-0.046,-0.0463,-0.0434,-0.0434,-0.0434,-0.0434,-0.0434,0,-0.0041,-0.0029,0.002,0.003,0.0069,0.0075,0.0107,0.01,0.0117,0.0144,0.0087,0.0098,-0.0018,-0.0095,-0.0215,-0.0338,-0.0321,-0.0449,-0.0487,-0.046,-0.0462,-0.0461,-0.0464,-0.0435,-0.0435,-0.0435,-0.0435,0,-0.0085,-0.0056,-0.0025,0.0031,0.0057,0.0081,0.0152,0.0178,0.0187,0.0229,0.0234,0.0197,0.0133,-0.0017,-0.016,-0.0279,-0.0407,-0.0474,-0.0437,-0.0469,-0.053,-0.0532,-0.0524,-0.0525,-0.0525,-0.0526,-0.0527,0,-0.0109,-0.0098,-0.0018,0.0023,0.0056,0.0113,0.0159,0.0199,0.0246,0.029,0.0321,0.0278,0.0278,0.006,-0.0161,-0.0353,-0.0409,-0.0492,-0.0489,-0.0495,-0.0534,-0.0535,-0.0536,-0.046,-0.046,-0.046,-0.046,0,-0.0137,-0.0107,-0.0067,0.0029,0.0095,0.017,0.0252,0.0314,0.0375,0.0454,0.0546,0.0561,0.0347,0.0187,-0.0129,-0.0278,-0.0446,-0.0496,-0.0509,-0.0447,-0.0439,-0.0477,-0.0479,-0.046,-0.046,-0.046,-0.046,-0.046,-0.0145,-0.011,-0.0033,0.006,0.0139,0.0259,0.0364,0.0479,0.0623,0.0769,0.0721,0.0771,0.0489,0.0169,-0.0115,-0.0418,-0.0408,-0.0511,-0.0509,-0.0508,-0.05,-0.0495,-0.0524,-0.0524,-0.0525,-0.0525,-0.0525,0,-0.012,-0.0068,0.0007,0.0143,0.0261,0.0292,0.0457,0.0599,0.084,0.0908,0.1012,0.0799,0.0582,0.0269,-0.0163,-0.0438,-0.0459,-0.0521,-0.0482,-0.0482,-0.0481,-0.047,-0.0487,-0.0488,-0.0488,-0.0488,0,0,-0.0111,-0.002,0.0038,0.0249,0.0354,0.0552,0.0677,0.0885,0.1004,0.1139,0.116,0.1083,0.0696,0.0399,0.0016,-0.0221,-0.0285,-0.0274,-0.028,-0.019,-0.0185,-0.0459,-0.0439,0,0,0,0,0]}],[{"header":{"parameterUnit":"m.s-1","parameterCategory":2,"la1":30.2991,"la2":30.254,"lo1":-89.0895,"lo2":-89.0444,"dy":0.0017,"dx":0.0017,"nx":28,"ny":28,"refTime":"2025-09-05T21:00:00:Z","depth":"4","parameterNumber":2,"parameterNumberName":"U-component_of_CURRENTS"},"data":[0,0,0,0,0,0,0,0,0,0,0,0,0,0,0,0,0,0,0,0,0,0,0,0,0,0,0,0,0,0,0,0,0,0,0,0,0,0,0,0,0,0,0,0,0,0,0,0,0,0,0,0,0,0,0,0,0,0,0.1115,0.1116,0,0.1172,0.1173,0.1173,0.121,0.1211,0.1211,0.1211,0.129,0.1291,0.1293,0,0,0,0,0,0,0,0,0,0,0,0,0,0.1049,0.105,0.1115,0.1116,0.1116,0.1172,0.1173,0.1173,0.121,0.1211,0.1211,0.1211,0.1289,0.1291,0.1294,0,0,0,0,0,0,0,0,0,0,0,0,0,0.1089,0.105,0.1115,0.1141,0.1144,0.1172,0.1173,0.1174,0.121,0.1211,0.1211,0.1211,0.1288,0.1291,0.1294,0.1306,0,0,0.1303,0.1304,0,0,0,0,0,0,0,0,0.1087,0.1092,0.1137,0.1139,0.1143,0.1184,0.1178,0.1219,0.121,0.1186,0.1211,0.1211,0.1256,0.1261,0.1272,0.131,0.1313,0.1303,0.1305,0.1306,0.1307,0,0,0,0,0,0,0,0.1084,0.109,0.1138,0.1137,0.1141,0.1154,0.116,0.1186,0.1219,0.1188,0.119,0.1196,0.1258,0.1269,0.1274,0.1314,0.1303,0.1305,0.1307,0.1308,0.1428,0.143,0,0,0,0,0,0,0.1075,0.1087,0.1136,0.114,0.1114,0.1154,0.1161,0.1171,0.1218,0.1226,0.1196,0.1197,0.1264,0.1271,0.1277,0.1363,0.1306,0.1309,0.131,0.1427,0.1429,0.143,0,0,0,0,0,0,0.1074,0.1079,0.1134,0.1114,0.1122,0.1155,0.1166,0.1172,0.1204,0.1224,0.1232,0.1224,0.1264,0.1273,0.1326,0.1363,0.131,0.1312,0.1425,0.1427,0.143,0.1491,0,0,0,0,0,0,0.1072,0.1079,0.1096,0.1113,0.1123,0.1167,0.1166,0.1173,0.1205,0.1209,0.1251,0.1257,0.1265,0.1321,0.1328,0.1366,0.1315,0.1423,0.1426,0.1429,0.1487,0.1495,0.1501,0,0,0,0,0,0.1069,0.1083,0.1096,0.1103,0.1141,0.1168,0.1175,0.1199,0.1207,0.1228,0.1259,0.1257,0.1344,0.1325,0.1333,0.1373,0.1422,0.1425,0.1429,0.1483,0.1493,0.1501,0,0,0,0,0,0,0.1063,0.1089,0.1103,0.1126,0.1154,0.1174,0.1195,0.1211,0.1252,0.1265,0.1279,0.1288,0.1346,0.135,0.1329,0.1414,0.1381,0.1386,0.142,0.1429,0.1437,0.1439,0.1317,0,0,0,0,0,0.1069,0.109,0.1116,0.1138,0.1152,0.1179,0.1198,0.1219,0.1249,0.1268,0.1299,0.1331,0.1362,0.1389,0.1415,0.1465,0.1465,0.1494,0.1502,0.1508,0.1515,0.1543,0.1553,0.1441,0.1441,0.1441,0,0,0.1073,0.1091,0.1104,0.114,0.1162,0.1187,0.1192,0.123,0.126,0.127,0.1331,0.136,0.138,0.1437,0.1463,0.1449,0.1541,0.1512,0.1517,0.1521,0.1547,0.1558,0.1568,0.1443,0.1443,0.1443,0,0,0.1074,0.1108,0.112,0.1151,0.1192,0.121,0.1225,0.1267,0.1298,0.1356,0.137,0.1427,0.1475,0.1505,0.152,0.1584,0.1575,0.1592,0.1639,0.1667,0.1676,0.1684,0.1704,0.1713,0.16,0.16,0.16,0,0.108,0.1097,0.113,0.1154,0.1186,0.1221,0.1249,0.1281,0.1341,0.1376,0.1384,0.1479,0.1506,0.1567,0.1598,0.1603,0.161,0.1604,0.1676,0.1684,0.1691,0.1709,0.1719,0.1603,0.1603,0.1603,0.1602,0,0.109,0.1113,0.1125,0.1168,0.1212,0.1243,0.1294,0.1343,0.1387,0.1423,0.1507,0.1551,0.1611,0.163,0.164,0.1711,0.1697,0.1678,0.1652,0.1706,0.1722,0.1731,0.1608,0.1607,0.1606,0.1605,0,0,0.107,0.1118,0.1127,0.1151,0.1227,0.126,0.1324,0.1387,0.1429,0.1504,0.1571,0.1646,0.1685,0.1706,0.1731,0.1765,0.1837,0.1755,0.1755,0.1773,0.1897,0.1812,0.1813,0.183,0.1831,0.1833,0.1889,0,0.1064,0.1097,0.1138,0.119,0.121,0.1287,0.1346,0.1424,0.148,0.1555,0.1624,0.1701,0.1705,0.176,0.1793,0.1829,0.1863,0.1824,0.1844,0.1844,0.176,0.1821,0.1839,0.1895,0.1897,0.1899,0.19,0,0.1053,0.108,0.1125,0.12,0.1223,0.1277,0.1388,0.1448,0.1554,0.1607,0.169,0.1747,0.1845,0.1832,0.1911,0.1886,0.1904,0.1916,0.1918,0.1822,0.1775,0.1829,0.1915,0.1914,0.1913,0.1912,0.1911,0,0.1004,0.1069,0.1107,0.1138,0.1234,0.1294,0.1363,0.1474,0.1537,0.1659,0.1712,0.1814,0.1897,0.1925,0.1979,0.1956,0.2041,0.2006,0.1939,0.1932,0.1963,0.1954,0.2052,0.2052,0.2052,0.2052,0.2052,0,0.0956,0.0988,0.1095,0.1109,0.1187,0.1289,0.1379,0.1449,0.1575,0.1648,0.1746,0.181,0.1928,0.1992,0.2002,0.2004,0.2063,0.196,0.1946,0.1988,0.1981,0.197,0.196,0.2054,0.2054,0.2053,0.2053,0,0.088,0.0936,0.0991,0.1111,0.1153,0.1229,0.138,0.1423,0.1558,0.1653,0.1712,0.1855,0.1947,0.2018,0.2097,0.2039,0.2047,0.2029,0.2087,0.2073,0.191,0.1903,0.1952,0.195,0.1948,0.1946,0.1945,0,0.0836,0.0853,0.0985,0.102,0.1075,0.1193,0.1244,0.1398,0.1456,0.1655,0.1684,0.185,0.1926,0.1953,0.2039,0.2061,0.2037,0.2019,0.1951,0.1921,0.1903,0.1899,0.1894,0.1941,0.1941,0.194,0.194,0,0.0751,0.0818,0.0858,0.094,0.1002,0.108,0.1184,0.123,0.1411,0.1528,0.1641,0.1724,0.1828,0.1909,0.196,0.1958,0.2016,0.1997,0.2,0.1935,0.1908,0.1892,0.1889,0.1933,0.1934,0.1934,0.1935,0,0.0697,0.0711,0.0771,0.0848,0.0916,0.0965,0.1038,0.1135,0.1235,0.1465,0.1505,0.1659,0.1818,0.1858,0.1888,0.1907,0.1874,0.1794,0.1807,0.1816,0.1749,0.1693,0.1652,0,0,0,0,0,0.0637,0.0621,0.0664,0.0731,0.0807,0.086,0.0986,0.1071,0.1247,0.1283,0.1411,0.1505,0.1613,0.1699,0.1694,0.1821,0.1866,0.1805,0.1776,0.1893,0.1901,0.1837,0,0,0,0,0,0,0.0566,0.0587,0.0614,0.0636,0.0667,0.0734,0.0817,0.0934,0.0996,0.1183,0.1253,0.1397,0.1521,0.1592,0.1654,0.1681,0.163,0.1914,0.191,0.1888,0.1896,0.1903,0.1839,0,0,0,0,0]},{"header":{"parameterUnit":"m.s-1","parameterCategory":2,"la1":30.2991,"la2":30.254,"lo1":-89.0895,"lo2":-89.0444,"dy":0.0017,"dx":0.0017,"nx":28,"ny":28,"refTime":"2025-09-05T21:00:00:Z","depth":"4","parameterNumber":3,"parameterNumberName":"V-component_of_CURRENTS"},"data":[0,0,0,0,0,0,0,0,0,0,0,0,0,0,0,0,0,0,0,0,0,0,0,0,0,0,0,0,0,0,0,0,0,0,0,0,0,0,0,0,0,0,0,0,0,0,0,0,0,0,0,0,0,0,0,0,0,0,0.0116,0.0116,0,0.0104,0.0103,0.0103,0.0078,0.0078,0.0078,0.0078,0.0017,0.0016,0.0014,0,0,0,0,0,0,0,0,0,0,0,0,0,0.0086,0.0086,0.0116,0.0116,0.0116,0.0104,0.0103,0.0103,0.0078,0.0078,0.0078,0.0078,0.0018,0.0016,0.0014,0,0,0,0,0,0,0,0,0,0,0,0,0,0.0085,0.0087,0.0116,0.0106,0.0105,0.0104,0.0103,0.0103,0.0078,0.0078,0.0078,0.0078,0.0018,0.0016,0.0014,0.0002,0,0,0.0007,0.0006,0,0,0,0,0,0,0,0,0.0085,0.0085,0.0107,0.0107,0.0106,0.0096,0.0071,0.0068,0.0078,0.0083,0.0078,0.0077,0.0042,0.0038,0.003,-0.0,-0.0003,0.0007,0.0005,0.0004,0.0004,0,0,0,0,0,0,0,0.0085,0.0086,0.0106,0.0108,0.0107,0.0092,0.0091,0.007,0.0059,0.0083,0.0082,0.0088,0.0041,0.0033,0.0029,-0.0004,0.0007,0.0005,0.0003,0.0003,-0.0004,-0.0003,0,0,0,0,0,0,0.0098,0.0086,0.0107,0.0107,0.01,0.0093,0.0092,0.0096,0.0061,0.0057,0.0088,0.0087,0.0037,0.0031,0.0026,0.004,0.0004,0.0002,0.0001,-0.0005,-0.0004,-0.0003,0,0,0,0,0,0,0.0097,0.0099,0.0108,0.01,0.01,0.0094,0.0098,0.0096,0.009,0.0066,0.006,0.0086,0.0036,0.003,0.0016,0.0036,0.0001,-0.0001,-0.0007,-0.0005,-0.0003,0.0048,0,0,0,0,0,0,0.0096,0.0099,0.0103,0.0101,0.0101,0.0113,0.0099,0.0096,0.0096,0.0094,0.0062,0.0056,0.0036,0.002,0.0014,0.0032,-0.0003,-0.0008,-0.0006,-0.0004,0.0045,0.0051,0.0057,0,0,0,0,0,0.0095,0.0109,0.0103,0.0106,0.0108,0.0114,0.0113,0.0105,0.0096,0.0097,0.0078,0.0057,0.0031,0.0019,0.0012,0.003,-0.0009,-0.0007,-0.0004,0.0042,0.005,0.0057,0,0,0,0,0,0,0.0095,0.0108,0.0102,0.0117,0.0117,0.0112,0.0116,0.0108,0.0093,0.0091,0.0062,0.0055,0.0054,0.0036,0.0023,0.0037,0.0012,0.0013,0.0049,0.0056,0.0062,0.0057,-0.0004,0,0,0,0,0,0.0098,0.0112,0.0116,0.0126,0.0129,0.012,0.0121,0.0117,0.0108,0.0101,0.008,0.0065,0.006,0.0052,0.004,0.0038,-0.0016,0.005,0.0057,0.0062,0.0055,-0.001,-0.0012,0.0006,0.0006,0.0006,0,0,0.01,0.011,0.0116,0.0127,0.0124,0.0141,0.0119,0.0127,0.0139,0.0096,0.0099,0.008,0.0064,0.0068,0.0067,0.0054,0.0028,0.0065,0.0069,0.0059,-0.0008,-0.001,-0.0012,0.0008,0.0008,0.0007,0,0,0.0122,0.012,0.0142,0.0146,0.0155,0.0155,0.016,0.0156,0.0152,0.0154,0.0133,0.0121,0.011,0.01,0.0097,0.0127,0.0061,0.0134,0.0157,0.0095,0.0092,0.0089,0.0009,-0.0002,0.0138,0.0138,0.0138,0,0.0122,0.015,0.0147,0.0169,0.0176,0.0166,0.0186,0.0188,0.0179,0.0171,0.0165,0.0139,0.0127,0.0126,0.0146,0.0139,0.0083,0.013,0.01,0.0096,0.0091,0.001,-0.0002,0.0141,0.014,0.014,0.014,0,0.0156,0.0181,0.0194,0.022,0.0225,0.024,0.0245,0.0246,0.024,0.023,0.0219,0.0196,0.0175,0.0184,0.0177,0.0156,0.0118,0.0111,0.0075,0.0092,0.0006,-0.0008,0.0145,0.0144,0.0143,0.0142,0,0,0.0149,0.0209,0.0212,0.0231,0.0251,0.0256,0.0281,0.0287,0.0285,0.0277,0.0258,0.0265,0.0231,0.0225,0.0207,0.0167,0.0097,0.0133,0.0129,0.0043,-0.0065,-0.0024,-0.0036,0.0079,0.0077,0.0076,-0.0117,0,0.0174,0.0232,0.0252,0.0293,0.0317,0.0315,0.0333,0.0332,0.0321,0.0298,0.0272,0.0251,0.0255,0.0235,0.02,0.012,0.0064,0.0149,-0.0059,-0.0065,-0.004,-0.0049,0.007,-0.0128,-0.0131,-0.0133,-0.0135,0,0.0195,0.0234,0.0286,0.0326,0.0332,0.0352,0.0351,0.0365,0.034,0.0327,0.0297,0.0259,0.0211,0.0206,0.0069,0.0118,0.0032,-0.0032,-0.0041,-0.0032,-0.0049,-0.0145,-0.0162,-0.016,-0.0158,-0.0156,-0.0154,0,0.0182,0.025,0.0291,0.0305,0.0351,0.0361,0.0375,0.0366,0.0373,0.0329,0.0313,0.0242,0.02,0.0092,-0.0008,0.0008,-0.0178,-0.018,-0.0232,-0.0232,-0.0238,-0.0232,-0.0296,-0.0296,-0.0295,-0.0295,-0.0294,0,0.0198,0.0225,0.0291,0.031,0.0346,0.0361,0.0379,0.0382,0.0373,0.038,0.0321,0.0302,0.017,0.0064,-0.0039,-0.0172,-0.021,-0.0241,-0.0275,-0.0211,-0.02,-0.0249,-0.0241,-0.0302,-0.03,-0.0299,-0.0298,0,0.0182,0.0226,0.0273,0.0328,0.0347,0.0365,0.0409,0.0425,0.0407,0.0408,0.0394,0.0318,0.0188,0.0051,-0.0142,-0.0202,-0.0344,-0.0384,-0.0323,-0.0349,-0.0362,-0.0349,-0.0489,-0.0489,-0.0489,-0.0489,-0.0489,0,0.0182,0.021,0.0282,0.032,0.0352,0.039,0.0429,0.0443,0.0467,0.0433,0.0438,0.0313,0.0253,0.0002,-0.014,-0.0368,-0.0372,-0.0467,-0.0391,-0.036,-0.0381,-0.0367,-0.0354,-0.0489,-0.0489,-0.0489,-0.0489,0,0.0185,0.021,0.026,0.0339,0.0393,0.0449,0.0502,0.052,0.0536,0.0516,0.0474,0.0352,0.0206,0.0024,-0.015,-0.03,-0.0416,-0.0468,-0.0468,-0.0398,-0.0362,-0.0379,-0.0367,-0.0489,-0.0489,-0.0489,-0.0489,0,0.019,0.0225,0.0302,0.0366,0.0436,0.0502,0.0521,0.0558,0.0574,0.0546,0.0526,0.0373,0.0275,0.0057,-0.01,-0.0245,-0.0274,-0.0311,-0.0321,-0.0322,-0.0189,-0.0113,-0.0204,0,0,0,0,0,0.0209,0.0266,0.0329,0.0412,0.0476,0.0513,0.058,0.0595,0.0604,0.0591,0.0563,0.0437,0.0214,0.0107,-0.0032,-0.0107,-0.0307,-0.0274,-0.0357,-0.049,-0.049,-0.0353,0,0,0,0,0,0,0.0235,0.0305,0.034,0.0438,0.0487,0.0566,0.0605,0.0611,0.0602,0.0583,0.0466,0.0404,0.0182,0.0289,-0.0037,-0.0083,-0.0152,-0.0385,-0.0387,-0.049,-0.049,-0.049,-0.0349,0,0,0,0,0]}]]